Location: Decatur Area Astronomy Club
(40.0275°N, 88.7810°W)
Time: 19:55:57
(UTC-05:00)

Daily predictions for brighter satellites

Satellite Brightness Start Highest point End
(mag) Time Altitude Azimuth Time Altitude Azimuth Time Altitude Azimuth
CZ-3C R/B 4.4 19:35:51 10° WSW 19:38:51 11° SW 19:41:02 10° SSW
Cosmos 2344 3.7 19:32:36 10° SSW 19:40:15 79° ESE 19:48:43 10° NE
CZ-2D R/B 4.4 19:40:24 10° SE 19:43:33 24° ENE 19:46:45 10° NNE
CZ-3B DEB 3.4 19:31:34 10° SW 19:44:26 77° NW 19:50:07 10° NE
In-Cosmos 22 4.4 19:41:14 10° N 19:46:20 46° ENE 19:51:23 10° SSE
Cosmos 1805 4.0 19:44:10 10° SSE 19:47:36 31° E 19:51:03 10° NNE
GPS 2-05 Rocket1 4.5 19:45:48 10° SSW 19:48:37 22° SSE 19:51:22 10° ESE
Cosmos 1818 4.2 19:44:15 10° NNW 19:49:21 39° NE 19:54:24 10° ESE
Cosmos 1844 Rocket 3.9 19:43:59 10° SW 19:49:25 48° WNW 19:54:53 10° NNE
Cosmos 1378 3.4 19:47:12 10° NNW 19:50:57 73° W 19:54:40 10° S
COSMOS 2487 4.3 19:49:03 10° NNE 19:51:18 16° ENE 19:53:16 11° E
ALOS 2.2 19:48:06 10° SSE 19:52:45 76° ENE 19:57:27 10° N
Resurs 1-3 4.0 19:51:04 10° SE 19:55:12 42° ENE 19:59:21 10° N
Cosmos 1437 Rocket 3.9 19:52:19 10° SSW 19:56:13 50° WNW 20:00:13 10° N
Meteor 1-22 Rocket 4.4 19:50:54 10° S 19:56:44 90° ENE 20:02:48 10° N
Meteor 1-4 Rocket 3.2 19:55:51 10° SSE 19:58:55 30° E 20:02:01 10° NNE
Cosmos 1833 Rocket 3.6 19:56:30 10° N 20:01:26 30° ENE 20:05:39 13° ESE
FENGYUN 3A 3.7 19:56:52 10° SSE 20:02:17 88° ENE 20:07:43 10° NNW
Cosmos 1470 4.2 20:00:59 10° SE 20:03:44 18° E 20:06:28 10° NE
Cosmos 2278 Rocket 2.3 20:00:53 10° SSW 20:06:34 82° WNW 20:12:17 10° NNE
SJ-6B 3.6 20:03:17 10° S 20:06:56 52° W 20:10:35 10° NNW
Cosmos 1544 3.1 20:03:46 10° S 20:07:19 53° E 20:10:55 10° NNE
Cosmos 372 Rocket 4.4 20:06:20 10° SSE 20:11:00 37° ESE 20:15:43 10° NE
Cosmos 1340 Rocket 4.3 20:08:36 10° NNE 20:11:21 18° ENE 20:12:09 17° E
CZ-4B DEB 4.2 20:12:04 19° E 20:12:32 19° ENE 20:14:50 10° NNE
Cosmos 1733 4.5 20:10:59 16° ESE 20:12:43 21° E 20:15:41 10° NE
Cosmos 2098 Rocket 4.5 20:05:46 10° SSE 20:12:45 57° E 20:20:10 10° NNE
ATLAS 5 CENTAUR R/B 2.3 20:13:33 10° S 20:17:43 34° ESE 20:22:11 10° NE
ISS -2.7 20:15:21 10° S 20:18:02 24° SE 20:18:25 23° ESE
Cosmos 158 Rocket 4.5 20:14:34 10° N 20:19:23 39° ENE 20:22:45 18° SE
USA 215 3.8 20:13:29 10° ENE 20:19:24 36° SE 20:25:17 10° SSW
Okean 3 Rocket 3.5 20:16:12 10° N 20:20:37 87° ENE 20:25:02 10° S
H-2A R/B 2.9 20:18:21 10° S 20:22:14 76° W 20:26:11 10° NNW
Cosmos 2297 3.7 20:16:51 10° S 20:22:28 62° ESE 20:28:08 10° NNE
Tiangong 1 2.7 20:21:57 10° W 20:24:23 24° SSW 20:25:54 16° SSE
Cosmos 1867 3.5 20:19:16 10° SSW 20:24:38 65° ESE 20:30:04 10° NE
Abrixas 2.2 20:23:17 10° NW 20:26:07 72° NNE 20:26:58 40° ESE
Spot 2 Rocket 3.6 20:22:33 10° S 20:27:39 80° WSW 20:32:48 10° NNW
Cosmos 1758 3.3 20:28:16 10° S 20:32:14 85° W 20:36:15 10° N
Helios 1B rocket 2.4 20:29:09 10° NNE 20:33:13 57° E 20:37:16 10° S
Cosmos 1076 Rocket 3.3 20:29:36 10° N 20:33:53 78° E 20:38:06 10° S
Cosmos 2082 Rocket 2.2 20:31:50 10° NNW 20:37:31 65° ENE 20:41:10 22° SE
Lacrosse 5 3.3 20:32:58 10° WSW 20:37:39 37° NW 20:42:21 10° NNE
USA 186 1.2 20:39:54 61° NNW 20:39:54 61° NNW 20:41:50 10° NNW
Cosmos 1953 2.5 20:36:07 10° SSW 20:40:10 75° W 20:44:15 10° N
SWAS 4.4 20:38:07 10° SSW 20:42:20 62° ESE 20:46:37 10° NNE
GP-B 3.0 20:40:44 10° S 20:45:09 77° E 20:49:36 10° N
Envisat 3.1 20:42:59 26° SE 20:45:44 56° ENE 20:50:43 10° N
Cosmos 1939 Rocket 3.3 20:45:32 39° ESE 20:46:15 44° ENE 20:50:12 10° N
Helios 1A 2.9 20:43:23 18° SSE 20:46:23 89° ENE 20:50:35 10° NNW
CZ-4B DEB 4.4 20:47:00 40° SSE 20:48:12 78° ENE 20:51:48 10° N
Cosmos 1271 Rocket 2.7 20:45:02 11° S 20:48:53 63° E 20:52:53 10° NNE
Cosmos 1766 Rocket 3.5 20:45:11 10° N 20:49:41 83° E 20:52:35 22° S
Cosmos 2016 Rocket 4.3 20:47:02 19° SSE 20:51:02 43° E 20:56:49 10° NNE
Resurs 01 Rocket 3.0 20:47:05 10° SSW 20:51:12 38° W 20:55:20 10° NNW
H-2A R/B 4.2 20:52:51 11° NE 20:52:51 11° NE 20:53:38 10° NE
Cosmos 1125 Rocket 4.0 20:50:03 10° SSW 20:55:10 61° WNW 21:00:21 10° NNE
Cosmos-2242 2.9 20:55:03 10° S 20:59:17 88° W 21:03:34 10° N
Cosmos 1048 Rocket 4.0 20:54:13 10° NNW 20:59:21 75° WSW 21:02:27 24° S
Geosat 4.4 20:54:43 10° NNE 20:59:42 63° WNW 21:04:39 10° SW
Lacrosse 5 rocket 1.9 20:58:53 10° NNW 21:02:25 39° NNE 21:02:25 39° NNE
ERS-1 Rocket 3.3 21:03:22 44° E 21:03:46 44° ENE 21:08:33 10° N
Cosmos 1674 3.1 21:01:46 10° NNW 21:05:30 61° W 21:06:52 36° SSW
Cosmos 2100 Rocket 4.0 21:00:41 10° S 21:07:00 89° E 21:13:24 10° N
SJ-11-01 4.2 21:06:18 42° SSE 21:07:55 86° ENE 21:12:39 10° NNW
YAOGAN 6 4.1 21:10:52 27° NNE 21:10:52 27° NNE 21:12:54 10° N
Tsikada Rocket 4.3 21:11:32 10° N 21:17:25 43° ENE 21:17:28 43° ENE
Meteor 1-29 4.3 21:16:23 10° N 21:19:40 40° WNW 21:22:08 16° SW
Cosmos 1743 Rocket 3.5 21:16:43 10° N 21:21:02 83° NNE 21:21:02 83° NNE
Cosmos 1500 Rocket 4.2 21:18:37 10° N 21:21:47 44° NNE 21:21:47 44° NNE
Cosmos 1356 Rocket 4.5 21:21:37 10° N 21:24:09 35° NNE 21:24:09 35° NNE
COSMOS 2487 4.2 21:23:43 10° NW 21:26:51 29° WSW 21:27:14 28° WSW
Cosmos 1802 Rocket 4.0 21:22:11 10° S 21:28:18 79° W 21:34:30 10° N
Cosmos 2251 Rocket 3.6 21:29:17 10° NNW 21:34:11 65° NE 21:34:11 65° NE
MetOp-B 4.4 21:44:56 58° NNE 21:44:56 58° NNE 21:49:22 10° N
Cosmos 1833 Rocket 3.9 21:40:15 10° NW 21:45:23 37° WSW 21:47:24 28° SSW
Cosmos 1340 Rocket 4.5 21:44:21 10° NNW 21:47:50 31° W 21:47:50 31° W
NOAA 11 4.4 21:49:03 61° NNE 21:49:03 61° NNE 21:53:40 10° N
CZ-3B DEB 4.2 21:51:37 10° WNW 21:56:49 19° NNW 21:59:39 12° NNE
ATLAS 5 CENTAUR R/B 3.6 21:58:09 10° WSW 22:02:22 31° NW 22:06:56 10° NNE
USA 215 3.5 21:56:09 10° NE 22:02:36 64° NW 22:09:00 10° WSW
BREEZE-M DEB (TANK) 4.2 22:06:37 10° W 22:11:15 71° NNW 22:30:46 10° ENE
Cosmos 2082 Rocket 4.5 22:17:32 10° WNW 22:20:58 16° W 22:23:05 14° WSW
SPOT 5 4.2 22:24:16 41° NW 22:24:16 41° NW 22:27:49 10° NNW
H-2A R/B 3.7 22:33:28 29° N 22:33:28 29° N 22:36:00 10° NNW
ARGOS 4.5 22:33:03 36° NW 22:33:03 36° NW 22:36:19 10° NNW
USA 267 3.7 22:35:30 54° N 22:35:30 54° N 22:40:45 10° NW
Terra 4.4 22:43:38 15° N 22:43:38 15° N 22:44:26 10° N
